Presure
259 275 277 247 242 250 243 236 267 271 215 199 194 190 160 175 192 187 182 180 196 207 80 127 136 178 196 130 98 93 95 84 87 221 95 92 118 101 165 142 160 110 122 107 116
277 283 347 356 326 257 253 271 236 288 250 215 202 193 187 180 161 170 176 172 178 196 200 181 84 106 144 146 133 100 91 165 87 81 87 105 119 172 166 163 158 149 140 135 90
256 291 354 362 407 368 266 248 277 246 289 231 215 204 193 199 201 160 159 180 182 192 198 197 201 172 102 116 93 157 169 173 108 207 81 216 142 220 197 182 190 190 97 89 84
255 287 367 441 415 397 412 284 252 284 252 282 231 211 205 96 180 161 169 98 150 175 190 195 195 93 198 100 196 82 185 88 138 95 215 169 232 244 205 209 162 182 88 128 104
283 304 335 400 391 455 449 357 273 260 258 266 259 242 220 199 107 148 187 140 175 183 188 182 187 192 208 195 91 154 139 179 171 208 141 175 217 193 136 165 193 118 157 172 152
244 293 309 350 396 398 424 454 366 261 260 227 296 297 165 127 196 195 112 186 182 162 183 179 170 180 194 151 194 127 85 98 116 167 165 152 126 155 161 150 160 159 161 133 110
254 283 294 313 368 395 420 436 465 456 237 260 229 222 278 147 154 158 194 191 174 180 176 168 188 185 189 95 131 211 148 89 191 132 206 166 128 228 190 147 182 159 164 168 116
253 264 279 300 323 386 404 426 453 383 257 219 262 229 242 224 204 171 204 185 183 171 176 161 173 174 192 189 147 180 109 147 209 101 192 127 136 146 149 172 168 160 161 171 163
249 243 268 287 313 372 387 392 427 475 469 228 248 250 203 95 214 176 170 176 180 184 184 165 190 198 89 140 194 182 91 88 194 196 159 130 118 146 119 110 174 161 175 171 148
241 245 266 278 292 332 379 372 377 409 461 254 92 258 265 147 227 201 145 163 177 181 189 151 174 99 173 166 100 169 211 198 184 99 114 215 147 137 81 84 87 166 177 170 145
234 229 253 265 275 304 393 391 384 374 444 259 212 244 273 224 212 200 201 179 180 188 180 178 169 157 184 156 94 170 173 181 85 198 176 108 171 126 156 169 169 162 178 173 158
239 233 240 242 271 291 325 394 413 385 396 244 214 244 263 216 314 210 211 191 201 186 197 173 187 165 91 80 190 162 165 169 113 197 189 170 134 162 145 165 174 163 180 141 167
227 239 231 243 251 282 303 329 377 430 473 228 215 237 255 266 273 237 202 206 197 188 187 142 156 171 184 118 171 101 177 167 174 194 202 160 135 190 149 133 144 154 127 132 140
231 227 223 233 241 250 285 312 362 399 474 216 209 217 246 265 212 295 206 200 200 196 197 168 139 182 174 192 176 182 188 138 198 185 195 166 210 103 102 101 126 156 125 168 168
234 222 238 230 242 245 263 283 313 343 360 214 207 196 235 258 241 272 215 201 196 199 202 177 70 174 180 188 173 194 187 199 179 176 191 208 199 150 129 103 104 149 170 164 101
232 216 222 217 229 236 243 265 304 341 227 213 200 208 223 255 262 252 268 214 198 198 207 194 172 152 180 177 168 161 167 202 181 188 181 203 150 105 170 179 169 144 172 172 176
230 225 229 218 218 221 231 257 286 373 213 214 199 205 200 216 256 249 201 228 212 210 203 201 191 145 183 174 159 177 165 123 161 188 139 183 198 128 137 137 165 158 153 129 104
157 177 226 218 224 215 233 96 259 284 230 217 203 197 202 197 237 254 204 191 197 206 201 185 192 185 190 183 140 104 164 192 121 190 165 180 193 191 180 176 160 166 164 142 96
233 219 216 222 217 220 228 223 104 254 278 212 201 203 201 201 203 244 209 186 195 194 193 195 185 184 191 180 175 188 176 180 170 197 185 168 184 200 159 166 140 153 156 175 170
184 212 216 134 216 220 224 233 230 242 248 197 197 201 200 187 197 222 191 193 187 192 183 191 156 182 189 176 191 174 182 164 175 179 177 194 166 204 177 168 157 159 173 164 177
216 205 191 165 136 217 218 236 229 234 233 244 197 195 199 192 197 187 190 188 185 187 188 156 160 181 169 188 192 159 170 169 192 182 193 175 187 191 154 153 101 93 94 178 175
220 216 214 217 213 223 215 219 229 225 238 232 232 198 198 197 197 194 186 185 186 191 190 200 182 204 189 162 189 189 194 151 180 171 193 172 172 204 183 157 161 141 129 162 184
217 232 208 169 207 220 155 87 226 226 221 219 249 249 198 198 196 197 193 192 191 188 186 186 184 182 185 183 171 171 171 183 233 159 192 185 178 190 194 184 170 168 164 167 177
229 236 212 221 221 214 179 204 204 227 221 230 227 202 233 240 222 205 196 196 198 201 201 197 209 175 172 202 198 195 188 195 177 159 190 185 145 136 188 183 168 171 180 152 173
232 227 195 229 227 214 208 218 211 208 216 228 222 219 218 226 226 235 229 238 242 240 233 196 195 195 195 190 197 211 191 175 176 211 183 197 150 183 192 185 181 180 157 184 179
160 207 210 240 231 206 215 220 177 222 231 220 210 223 211 225 225 229 219 228 225 232 226 218 183 142 145 154 138 149 219 156 217 197 196 134 141 197 168 174 162 158 133 132 141
174 241 229 214 227 212 213 216 216 211 220 225 218 206 220 225 230 215 223 219 183 220 164 227 231 236 226 204 192 218 144 171 118 199 192 149 159 200 199 151 179 162 159 176 180
Wind_Speed
71 71 82 85 83 87 88 87 96 103 91 83 81 79 76 71 64 61 55 62 61 56 32 48 53 51 54 46 35 25 29 23 22 47 23 22 29 23 44 32 37 21 25 20 23
57 63 62 60 75 90 90 90 89 97 102 92 87 84 79 75 70 63 64 65 61 54 56 57 33 44 58 57 55 40 27 36 24 17 17 27 30 41 42 38 38 33 31 30 22
58 66 65 70 50 70 94 90 91 92 101 97 94 90 81 76 67 78 75 67 61 55 51 52 43 48 35 49 29 54 46 47 30 34 22 41 27 47 52 45 48 44 26 24 23
60 65 66 29 36 50 62 92 90 94 93 106 99 90 89 44 68 59 74 24 55 60 49 46 43 31 39 31 30 27 38 30 41 31 36 33 38 44 41 42 34 37 28 33 34
56 63 70 33 31 25 45 78 96 89 90 96 98 103 92 79 42 51 75 59 62 55 53 46 43 45 43 33 34 43 40 34 25 33 33 32 37 36 27 37 39 33 29 31 30
55 62 66 61 39 32 24 32 77 92 91 90 94 110 67 41 85 81 40 71 59 63 52 49 56 46 35 35 37 37 31 37 39 32 29 31 30 34 36 37 34 37 27 31 35
58 61 67 71 47 30 18 22 32 46 86 86 87 80 105 84 62 74 82 75 61 62 58 62 55 42 35 37 35 38 48 40 32 40 29 35 29 35 39 32 41 29 31 34 32
51 57 59 72 70 35 24 9 13 63 87 79 91 82 67 102 82 72 83 67 67 61 63 57 50 33 39 33 34 42 42 47 18 31 27 26 35 35 36 36 39 33 36 36 35
49 45 57 74 70 45 26 28 17 13 38 84 83 81 85 14 82 78 63 65 71 74 71 52 49 51 42 39 37 34 43 39 23 23 31 33 32 34 28 24 39 37 37 36 30
45 51 68 71 73 64 32 15 18 10 15 89 17 80 83 25 92 87 61 62 70 73 69 40 40 26 36 39 38 45 46 24 27 34 31 30 44 28 16 15 26 38 36 36 30
38 40 59 64 68 69 31 14 8 14 10 81 71 76 80 81 62 84 86 74 74 65 43 40 36 37 51 65 46 41 36 28 32 28 30 37 45 33 39 45 43 37 37 38 37
42 39 53 50 68 65 60 35 5 10 14 80 73 79 77 76 80 87 88 78 79 61 68 53 53 52 34 24 41 49 32 38 35 26 30 29 34 41 40 42 44 36 36 29 39
34 43 36 56 60 67 63 51 39 5 11 73 69 70 70 70 71 88 81 83 78 67 60 40 65 55 48 29 51 39 28 41 34 23 26 38 43 46 42 36 36 38 30 31 34
35 35 30 48 49 53 61 53 39 27 13 72 68 65 66 70 80 76 80 80 77 73 74 57 50 47 31 58 47 36 33 47 32 26 31 40 48 35 28 29 35 39 34 40 39
28 34 43 44 47 51 52 51 30 29 35 74 71 69 67 66 71 74 83 72 75 78 76 61 12 36 45 60 44 49 38 46 22 31 33 42 46 46 38 31 33 42 46 46 30
23 27 34 33 42 45 43 40 34 8 71 71 64 66 61 62 65 71 72 80 77 72 78 71 61 50 64 53 52 46 29 51 30 28 39 38 47 31 53 51 50 45 48 46 44
14 29 29 31 33 33 32 40 39 21 65 68 61 60 57 57 62 66 57 74 67 65 63 68 61 46 58 49 50 36 45 26 47 32 30 41 50 48 40 41 51 46 45 43 31
4 13 24 26 33 28 35 21 44 48 49 67 62 58 58 55 57 59 60 51 57 68 70 59 60 57 62 59 47 34 43 45 35 37 45 41 45 56 55 51 49 49 48 45 29
10 13 21 24 27 31 33 27 19 42 44 66 60 59 55 54 52 55 59 52 55 57 56 63 63 64 68 59 45 56 39 36 39 47 42 46 50 55 41 47 46 43 45 48 52
3 4 18 29 25 28 32 33 33 38 38 63 62 60 57 54 53 55 54 55 51 55 51 61 55 52 61 50 56 51 44 46 38 43 45 52 52 56 57 53 49 50 53 49 54
5 6 15 23 15 26 30 32 40 39 40 40 63 61 61 59 58 55 56 57 53 55 56 54 53 54 52 58 62 47 46 46 51 43 50 49 54 51 43 40 35 33 34 57 57
17 12 14 24 18 23 27 31 36 36 25 42 43 64 64 60 59 59 58 57 59 60 61 66 54 64 61 45 56 60 61 49 47 45 55 51 49 59 57 49 54 48 50 56 61
17 24 13 16 16 20 19 4 33 33 37 43 36 38 61 62 62 63 61 63 63 62 59 59 58 55 59 55 47 48 49 55 52 44 57 57 54 57 63 60 62 59 51 54 64
22 29 17 21 29 24 18 21 29 22 29 23 35 42 41 36 45 59 64 65 65 67 68 66 68 49 44 70 64 65 62 66 52 39 58 59 45 34 62 65 55 59 67 54 63
25 25 11 30 34 29 20 25 19 27 35 32 29 33 36 31 36 39 44 36 35 33 37 68 69 69 69 62 65 64 66 50 54 56 64 59 47 57 69 71 66 67 45 72 71
4 15 11 25 39 20 32 33 22 27 30 34 38 28 40 29 35 32 44 40 39 38 50 55 40 38 33 23 41 31 55 23 58 64 67 47 49 69 46 57 46 42 56 58 62
5 36 30 23 28 35 30 34 31 28 28 30 37 36 31 27 23 41 34 45 43 45 43 41 43 47 53 45 42 59 37 45 40 68 63 43 43 74 77 59 64 58 58 65 74
Wind_Direction
272 274 261 258 250 242 239 236 230 227 227 224 224 223 228 219 221 216 217 224 229 227 213 219 222 226 234 234 230 224 235 240 242 253 267 286 255 271 252 250 246 259 261 257 268
315 292 304 293 262 245 237 233 232 225 225 223 222 222 219 221 226 214 217 221 222 230 226 227 217 221 227 227 228 227 221 237 243 221 255 259 253 241 242 245 249 248 258 261 278
318 325 313 301 264 251 237 234 227 225 221 221 221 219 221 221 220 219 221 220 220 226 226 227 228 219 220 231 222 231 232 236 237 249 237 250 244 247 244 246 250 254 263 271 278
324 329 327 304 277 246 241 231 229 222 220 218 217 218 216 223 213 218 219 208 222 217 224 227 228 207 225 210 232 225 227 235 233 247 248 255 251 244 243 241 249 248 266 263 271
340 348 1 329 332 290 253 230 226 223 220 216 218 216 214 211 213 215 220 215 214 223 224 222 227 231 238 226 207 221 227 230 229 240 251 254 246 242 251 245 247 255 254 258 265
343 357 2 5 346 334 289 258 227 220 217 219 213 215 211 206 211 212 212 219 215 216 222 223 216 222 229 219 235 218 228 235 244 239 248 253 252 242 236 245 247 244 250 258 270
354 1 10 8 1 341 317 268 235 224 213 212 218 215 211 220 209 217 214 215 209 218 217 214 230 225 224 204 228 250 229 228 227 248 246 247 253 232 227 250 234 246 246 248 274
358 2 13 14 7 2 14 12 226 217 209 211 210 212 204 209 207 215 211 213 215 211 220 214 221 210 233 233 213 213 219 227 251 235 253 246 252 247 250 236 240 242 248 246 258
353 3 11 16 11 16 23 42 50 189 207 204 207 206 211 199 205 211 211 211 214 222 224 208 225 230 207 208 240 204 223 231 218 232 242 244 249 244 247 254 237 243 246 249 260
2 18 12 19 15 14 13 55 56 65 188 200 185 201 206 195 205 206 206 212 215 219 221 220 210 226 206 204 221 205 251 212 225 233 239 256 240 234 262 274 273 241 244 248 256
15 20 17 24 20 17 27 44 108 168 170 192 194 198 203 203 205 207 209 213 217 217 211 207 200 220 228 216 207 209 214 221 237 256 243 250 225 236 242 238 242 244 247 247 255
25 29 30 29 20 20 24 46 112 199 192 185 190 197 200 200 197 205 208 214 214 217 216 224 226 216 219 236 240 207 238 244 235 229 232 248 235 235 240 241 240 245 248 249 255
36 34 38 38 26 19 21 26 36 87 192 183 191 195 196 195 197 202 208 210 213 217 210 203 207 221 228 232 219 228 209 222 228 241 243 237 239 223 239 252 246 244 253 250 251
43 48 48 47 42 41 27 19 28 70 138 181 190 194 195 193 199 196 207 209 213 216 217 207 223 221 199 229 226 229 229 229 244 236 240 237 228 251 260 267 253 243 256 251 252
58 58 42 51 46 42 37 36 18 95 110 181 188 195 193 192 195 196 206 209 214 214 216 218 241 210 230 231 213 241 239 247 228 230 244 236 229 236 241 265 276 244 250 255 274
64 66 64 64 62 61 47 44 37 89 175 184 193 193 192 191 190 196 199 206 212 213 213 213 210 209 223 218 211 223 213 245 230 240 241 234 234 249 236 235 244 248 253 254 255
50 75 76 86 85 79 69 55 64 105 177 183 195 194 194 195 192 196 206 204 213 216 215 217 218 223 226 216 222 213 217 238 225 244 244 237 234 242 238 244 247 252 256 258 267
137 105 86 102 93 97 80 184 72 80 170 182 192 196 194 199 195 195 205 208 208 208 210 212 220 226 230 233 230 241 216 249 242 246 229 240 243 238 238 237 250 255 255 261 274
110 103 112 106 112 100 95 111 193 93 91 182 193 197 197 198 199 193 200 206 210 209 213 214 218 221 223 223 218 236 214 222 217 247 243 237 245 239 240 243 250 257 260 257 261
51 152 135 156 122 114 110 104 123 116 119 189 194 197 199 200 201 198 204 210 212 213 216 216 214 226 228 228 237 236 234 219 234 240 242 243 243 244 243 247 255 261 259 265 262
182 151 130 141 149 130 126 113 125 123 143 130 195 199 201 201 201 204 204 209 212 218 219 210 214 227 223 231 233 224 226 232 248 241 248 242 246 243 242 252 263 269 276 261 265
188 181 175 141 149 152 148 138 127 146 122 156 162 201 202 203 204 207 208 212 214 217 218 220 227 224 225 233 234 239 240 233 236 236 246 246 249 239 241 252 261 256 265 264 262
183 186 187 171 173 153 184 226 135 140 161 170 129 136 207 207 209 210 212 216 218 219 220 223 227 230 232 235 232 232 231 244 235 238 245 248 252 238 243 249 255 263 270 273 268
197 191 188 188 178 173 181 158 172 152 137 144 163 177 164 155 195 209 216 219 221 221 223 227 222 219 227 228 232 234 239 238 242 243 248 250 259 239 243 246 263 266 259 266 274
195 194 150 193 180 187 188 160 167 180 168 153 150 165 173 170 180 164 185 173 179 181 202 227 228 229 230 231 233 230 234 241 245 231 248 242 244 239 241 247 256 261 272 263 272
135 181 181 195 193 199 186 182 204 183 172 167 177 162 181 179 170 170 184 176 187 183 196 211 201 203 205 214 219 221 218 238 222 234 238 253 248 242 249 251 264 276 275 279 277
324 199 199 200 193 199 200 195 206 209 199 189 183 191 181 180 190 192 189 188 190 192 194 200 204 195 200 205 210 214 226 228 258 232 236 255 257 243 247 262 268 263 269 284 282